DW4005 Mahon ES current weather conditions

sailwx.info

Wind from 315 at 1 knots gusting 4

Air temperature 27.8° C
Dewpoint 17.9° C

Last reported at 2017-May-24 11:05 UTC.
Time now 2017-May-24 11:50 UTC

Location: N 39°56' E 004°08'.
View on Google Maps.

See reports from other nearby stations

  
Tides and Currents Weather Stations Pressure Air Temp Water Temp Dewpoint Dewpoint Depression Visibility Wind Speed Wind Dir Waves Ship Positions
date/time (UTC)wind fromknots sea level pressurealtimeterstation pressurevisibilityair tempwater tempwave heightnotes
2017-May-24 11:05 315 1 gusting 4 27.8
2017-May-24 10:50 319 1 gusting 4 27.8
2017-May-24 10:35 317 2 gusting 4 27.2
2017-May-24 10:20 317 2 gusting 4 26.7
2017-May-24 10:05 326 4 gusting 6 27.2
2017-May-24 09:50 317 1 gusting 5 27.2
2017-May-24 09:35 329 2 gusting 6 26.7
2017-May-24 09:20 302 2 gusting 6 26.1
2017-May-24 09:05 310 4 gusting 7 25.6
2017-May-24 08:50 305 4 gusting 7 25.0
2017-May-24 08:34 340 3 gusting 9 24.4
2017-May-24 08:19 309 3 gusting 6 24.4
2017-May-24 08:05 320 4 gusting 7 24.4
2017-May-24 07:49 301 3 gusting 7 23.3
2017-May-24 07:34 304 3 gusting 7 22.8
2017-May-24 07:19 302 3 gusting 6 22.2
2017-May-24 07:04 324 3 gusting 6 21.7
2017-May-24 06:49 242 1 gusting 4 21.1
2017-May-24 06:34 242 0 gusting 5 20.0
2017-May-24 06:19 238 2 gusting 6 18.9
2017-May-24 06:04 217 1 gusting 4 18.9
2017-May-24 05:49 251 2 gusting 5 18.3
2017-May-24 05:34 257 3 gusting 5 17.8
2017-May-24 05:19 257 3 gusting 5 17.8
2017-May-24 05:04 254 2 gusting 5 17.2
2017-May-24 04:49
2017-May-24 04:34
2017-May-24 04:19
2017-May-24 04:04
2017-May-24 03:49
2017-May-24 03:34
2017-May-24 03:18
2017-May-24 03:03
2017-May-24 02:48
2017-May-24 02:33
2017-May-24 02:18
2017-May-24 02:03
2017-May-24 01:48
2017-May-24 01:33
2017-May-24 01:18
2017-May-24 01:03
2017-May-24 00:48
2017-May-24 00:33
2017-May-24 00:18
2017-May-24 00:03
2017-May-23 23:47
2017-May-23 23:33
2017-May-23 23:17
2017-May-23 23:02
2017-May-23 22:47
2017-May-23 22:32
2017-May-23 22:17
2017-May-23 22:02
2017-May-23 21:47
2017-May-23 21:32
2017-May-23 21:17
2017-May-23 21:02
2017-May-23 20:46
2017-May-23 20:32
2017-May-23 20:16
2017-May-23 20:01
2017-May-23 19:46
2017-May-23 19:31
2017-May-23 19:16
2017-May-23 19:01
2017-May-23 18:46 323 20.6
2017-May-23 18:31 323 0 gusting 3 20.6
2017-May-23 18:16 323 20.6
2017-May-23 18:01 320 0 gusting 4 21.1
2017-May-23 17:46 318 22.2
2017-May-23 17:31 304 23.3
2017-May-23 17:16 307 1 gusting 2 23.3
2017-May-23 17:01 319 0 gusting 4 23.3
2017-May-23 16:46 309 2 gusting 4 23.9
2017-May-23 16:31 309 1 gusting 4 23.9
2017-May-23 16:16 310 1 gusting 4 23.9
2017-May-23 16:01 306 1 gusting 6 24.4
2017-May-23 15:46 323 1 gusting 4 23.9
2017-May-23 15:31 026 1 gusting 4 23.3
2017-May-23 15:16 034 2 gusting 6 23.3
2017-May-23 15:01 096 2 gusting 5 23.3
2017-May-23 14:46 025 1 gusting 6 23.3
2017-May-23 14:31 043 2 gusting 6 23.3
2017-May-23 14:16 026 2 gusting 6 23.9
2017-May-23 14:01 026 1 gusting 5 23.9
2017-May-23 13:46 052 2 gusting 6 23.3
2017-May-23 13:31 030 1 gusting 5 22.8
2017-May-23 13:16 068 2 gusting 6 22.8
2017-May-23 13:01 113 2 gusting 6 23.3
2017-May-23 12:46 123 2 gusting 5 22.8
2017-May-23 12:31 049 2 gusting 6 22.8
2017-May-23 12:16 060 1 gusting 6 22.8
2017-May-23 12:01 022 3 gusting 6 22.8
2017-May-23 11:45 065 2 gusting 7 22.8
2017-May-23 11:31 050 3 gusting 7 22.8
2017-May-23 11:16 065 2 gusting 5 22.8
2017-May-23 11:01 091 2 gusting 7 22.8
2017-May-23 10:45 130 2 gusting 7 22.2
2017-May-23 10:31 022 1 gusting 6 22.2
2017-May-23 10:15 031 3 gusting 6 22.2
2017-May-23 10:00 319 2 gusting 7 22.2
2017-May-23 09:45 054 1 gusting 7 22.2
2017-May-23 09:30 042 3 gusting 6 21.7
2017-May-23 09:15 040 0 gusting 6 21.7
2017-May-23 09:00 051 2 gusting 6 21.7
2017-May-23 08:45 034 0 gusting 7 21.7
2017-May-23 08:30 046 3 gusting 6 21.7
2017-May-23 08:15 037 2 gusting 6 21.1
2017-May-23 08:00 036 1 gusting 6 21.1
2017-May-23 07:45 017 1 gusting 5 21.1
2017-May-23 07:30 079 1 gusting 5 20.6
2017-May-23 07:15 047 20.6
2017-May-23 07:00 360 20.6
2017-May-23 06:45 319 20.6
2017-May-23 06:30 045 1 gusting 4 20.0
2017-May-23 06:15 038 0 gusting 5 19.4
2017-May-23 06:00 040 0 gusting 3 19.4
2017-May-23 05:45 144 18.9
2017-May-23 05:30 146 18.3
2017-May-23 05:15 146 17.8
2017-May-23 05:00 147 17.2
2017-May-23 04:45
2017-May-23 04:30
2017-May-23 04:15
2017-May-23 04:00
2017-May-23 03:45
2017-May-23 03:29
2017-May-23 03:14
2017-May-23 02:59
2017-May-23 02:44
2017-May-23 02:29
2017-May-23 02:14
2017-May-23 01:59
2017-May-23 01:44
2017-May-23 01:29
2017-May-23 01:14
2017-May-23 00:59
2017-May-23 00:44
2017-May-23 00:28
2017-May-23 00:13
2017-May-22 23:58
2017-May-22 23:43
2017-May-22 23:28
2017-May-22 23:13
2017-May-22 22:58
2017-May-22 22:43
2017-May-22 22:28
2017-May-22 22:13
2017-May-22 21:58
2017-May-22 21:43
2017-May-22 21:28
2017-May-22 21:12
2017-May-22 20:57
2017-May-22 20:42
2017-May-22 20:27
2017-May-22 20:12
2017-May-22 19:57
2017-May-22 19:42
2017-May-22 19:27
2017-May-22 19:12
2017-May-22 18:57
2017-May-22 18:42 151 4 gusting 6 18.9
2017-May-22 18:27 139 4 gusting 8 18.9
2017-May-22 18:12 146 3 gusting 7 18.9
2017-May-22 17:57 127 5 gusting 8 18.9
2017-May-22 17:42 136 4 gusting 7 19.4
2017-May-22 17:27 128 3 gusting 9 19.4
2017-May-22 17:12 126 4 gusting 8 19.4
2017-May-22 16:57 157 5 gusting 8 20.0
2017-May-22 16:42 122 5 gusting 8 19.4
2017-May-22 16:27 122 4 gusting 8 19.4
2017-May-22 16:12 121 4 gusting 9 19.4
2017-May-22 15:57 123 5 gusting 7 20.0
2017-May-22 15:42 132 5 gusting 7 20.6
2017-May-22 15:27 120 6 gusting 9 20.6
2017-May-22 15:12 137 6 gusting 12 20.0
2017-May-22 14:57 129 6 gusting 11 20.0
2017-May-22 14:42 119 6 gusting 10 20.6
2017-May-22 14:27 125 5 gusting 13 20.6
2017-May-22 14:12 109 5 gusting 9 20.6
2017-May-22 13:57 147 6 gusting 13 20.6
2017-May-22 13:42 138 6 gusting 12 21.1
2017-May-22 13:26 136 6 gusting 13 20.6
2017-May-22 13:12 118 6 gusting 9 21.1
2017-May-22 12:57 122 5 gusting 9 21.1
2017-May-22 12:42 094 6 gusting 13 21.1
2017-May-22 12:26 116 6 gusting 11 21.1
2017-May-22 12:12 151 5 gusting 9 21.1
2017-May-22 11:56 116 5 gusting 9 21.1
2017-May-22 11:41 094 3 gusting 9 21.1
2017-May-22 11:26 138 5 gusting 10 21.1
2017-May-22 11:11 142 3 gusting 8 21.1